[TLELIST] Archives

 

[list_settings.list_name] Current TLEs

October 4th 2016 PST

HST 1 20580U 90037B 16278.22392362 .00000963 00000-0 48974-4 0 9991 2 20580 28.4697 258.5909 0002532 302.5591 245.7916 15.08524326251590 ISS (ZARYA) 1 25544U 98067A 16278.37779601 .00004775 00000-0 79598-4 0 9999 2 25544 51.6441 233.3757 0006609 37.6498 69.1223 15.54033846 21972 CXO 1 25867U 99040B 16278.85926106 +.00000402 +00000-0 +00000-0 0 9997 2 25867 075.3678 295.4013 6975755 258.4856 359.9775 00.37805532003957 ____________________________________________________________________ These 2-Line ...Continue Reading

[list_settings.list_name] Current TLEs

October 3rd 2016 PST

HST 1 20580U 90037B 16276.80253473 .00000953 00000-0 48335-4 0 9992 2 20580 28.4698 267.9796 0002515 286.0736 87.8743 15.08521796251374 ISS (ZARYA) 1 25544U 98067A 16277.41979267 .00005400 00000-0 89064-4 0 9998 2 25544 51.6438 238.1512 0006676 34.3263 109.3444 15.54026112 21822 CXO 1 25867U 99040B 16278.85917032 .00000402 00000-0 00000+0 0 9994 2 25867 75.3679 295.4013 6975726 258.4854 359.9652 0.37805934 15081 ____________________________________________________________________ These 2-Line ...Continue Reading

[list_settings.list_name] Current TLEs

October 2nd 2016 PST

HST 1 20580U 90037B 16275.43487117 .00001036 00000-0 53500-4 0 9997 2 20580 28.4699 277.0134 0002503 269.9904 221.9105 15.08519825251178 ISS (ZARYA) 1 25544U 98067A 16276.51267453 .00005824 00000-0 95509-4 0 9996 2 25544 51.6438 242.6726 0006624 30.4136 75.0493 15.54017269 21688 CXO 1 25867U 99040B 16278.85917032 .00000402 00000-0 00000+0 0 9994 2 25867 75.3679 295.4013 6975726 258.4854 359.9652 0.37805934 15081 ____________________________________________________________________ These 2-Line ...Continue Reading

[list_settings.list_name] Current TLEs

October 1st 2016 PST

HST 1 20580U 90037B 16274.23805914 .00001113 00000-0 58355-4 0 9992 2 20580 28.4700 284.9185 0002511 256.0834 203.4566 15.08518057250982 ISS (ZARYA) 1 25544U 98067A 16275.15984861 .00006074 00000-0 99361-4 0 9992 2 25544 51.6433 249.4151 0006640 25.5717 66.5847 15.54001078 21474 CXO 1 25867U 99040B 16276.21502553 +.00000329 +00000-0 +00000-0 0 9999 2 25867 075.3845 295.4679 6978420 258.5250 000.0519 00.37806664003937 ____________________________________________________________________ These 2-Line ...Continue Reading

[list_settings.list_name] Current TLEs

September 30th 2016 PST

HST 1 20580U 90037B 16274.23805914 .00001113 00000-0 58355-4 0 9992 2 20580 28.4700 284.9185 0002511 256.0834 203.4566 15.08518057250982 ISS (ZARYA) 1 25544U 98067A 16274.46145125 .00006076 00000-0 99411-4 0 9995 2 25544 51.6432 252.8970 0006578 23.0415 119.4200 15.53992006 21366 CXO 1 25867U 99040B 16276.21502553 .00000329 00000-0 00000+0 0 9998 2 25867 75.3845 295.4679 6978420 258.5250 0.0519 0.37806664 15075 ____________________________________________________________________ These 2-Line ...Continue Reading

[list_settings.list_name] Current TLEs

September 29th 2016 PST

HST 1 20580U 90037B 16272.89991898 .00001103 00000-0 57741-4 0 9996 2 20580 28.4702 293.7571 0002544 240.8177 137.3465 15.08515710250782 ISS (ZARYA) 1 25544U 98067A 16273.43513706 .00005557 00000-0 91612-4 0 9993 2 25544 51.6439 258.0118 0006601 18.9000 138.1956 15.53976993 21201 CXO 1 25867U 99040B 16273.56943764 .00000287 00000-0 00000+0 0 9999 2 25867 75.4002 295.5422 6979733 258.5648 359.9445 0.37806687 15065 ____________________________________________________________________ These 2-Line ...Continue Reading

[list_settings.list_name] Current TLEs

September 28th 2016 PST

HST 1 20580U 90037B 16271.84052083 .00001006 00000-0 51633-4 0 9990 2 20580 28.4702 300.7545 0002571 228.7088 144.8375 15.08513420250620 ISS (ZARYA) 1 25544U 98067A 16272.46666252 .00004752 00000-0 79442-4 0 9993 2 25544 51.6452 262.8393 0006520 14.9357 120.6286 15.53962345 21056 CXO 1 25867U 99040B 16273.56943764 .00000287 00000-0 00000+0 0 9999 2 25867 75.4002 295.5422 6979733 258.5648 359.9445 0.37806687 15065 ____________________________________________________________________ These 2-Line ...Continue Reading

[list_settings.list_name] Current TLEs

September 27th 2016 PST

HST 1 20580U 90037B 16270.54288959 .00000879 00000-0 43708-4 0 9990 2 20580 28.4703 309.3255 0002619 213.5827 299.0343 15.08510818250435 ISS (ZARYA) 1 25544U 98067A 16271.28490955 .00006313 00000-0 95729-4 0 9998 2 25544 51.6411 268.7351 0006515 8.1817 351.9804 15.53948307 20876 CXO 1 25867U 99040B 16273.56943764 .00000287 00000-0 00000+0 0 9999 2 25867 75.4002 295.5422 6979733 258.5648 359.9445 0.37806687 15065 ____________________________________________________________________ These 2-Line ...Continue Reading

[list_settings.list_name] Current TLEs

September 26th 2016 PST

HST 1 20580U 90037B 16269.23836235 .00000974 00000-0 49661-4 0 9990 2 20580 28.4704 317.9420 0002670 198.9400 55.2340 15.08509378250231 ISS (ZARYA) 1 25544U 98067A 16270.20968569 .00003031 00000-0 53388-4 0 9999 2 25544 51.6452 274.0859 0006285 7.4866 93.6781 15.53934258 20700 CXO 1 25867U 99040B 16270.92687501 .00000314 00000-0 00000+0 0 9991 2 25867 75.4146 295.6198 6979300 258.6128 0.2218 0.37803231 15054 ____________________________________________________________________ These 2-Line ...Continue Reading

[list_settings.list_name] Current TLEs

September 25th 2016 PST

HST 1 20580U 90037B 16269.23836235 .00000974 00000-0 49661-4 0 9990 2 20580 28.4704 317.9420 0002670 198.9400 55.2340 15.08509378250231 ISS (ZARYA) 1 25544U 98067A 16269.49228101 .00002995 00000-0 52851-4 0 9991 2 25544 51.6456 277.6610 0006354 5.0512 40.1780 15.53928830 20599 CXO 1 25867U 99040B 16270.92687501 .00000314 00000-0 00000+0 0 9991 2 25867 75.4146 295.6198 6979300 258.6128 0.2218 0.37803231 15054 ____________________________________________________________________ These 2-Line ...Continue Reading
  • This mailing list is a public mailing list - anyone may join or leave, at any time.
  • This mailing list is announce-only.

International Space Station (ISS) / Hubble Space Telescope (HST) / Chandra X-Ray Observatory Orbital Data via EMAIL

Privacy Policy:

Private list